Location: Brno
(49.2000°N, 16.6330°E)
Time: 18:13:48
(UTC+02:00)

Transit 4A - Pass Details

Date: 29 July 2021
Orbit: 871 x 974 km, 66.8° (Epoch: 16 September)

Event Time Altitude Azimuth Distance (km) Brightness Sun altitude
Rises 03:36:52 0° 257° (WSW) 3,481 - -13.7°
Exits shadow 03:38:53 - 265° (W) 2,806 10.0 -13.5°
Reaches altitude 10° 03:39:45 10° 269° (W) 2,534 9.8 -13.4°
Maximum altitude 03:44:39 27° 326° (NNW) 1,624 9.4 -12.9°
Drops below altitude 10° 03:49:33 10° 24° (NNE) 2,529 11.5 -12.4°
Sets 03:52:27 0° 36° (NE) 3,472 13.0 -12.1°
